sat.trackr.live / text

‹ back to catalog

YAOGAN-30 07C

NORAD 45462 · 2020-021C

PAYLOAD ACTIVE UNKNOWN

§ Identity

Operator
Country
PRC
Launch date
2020-03-24
Launch site
XICLF
Launch vehicle
Mass (kg)
RCS (m²)

External: N2YO · Heavens-Above · Gunter

§ Orbital elements

Epoch: 2026-05-24T23:58:34.142592Z

Period
95.83 min
Inclination
34.9966°
Eccentricity
0.0001666
Mean motion
15.02592825 rev/d
Perigee alt
557.7 km
Apogee alt
560.1 km
Semi-major
6,937.0 km
B*
1.8736e-4
RAAN
349.8603°
Arg perigee
232.9890°
Mean anomaly
127.0666°
Rev number
33,692

§ Raw data

YAOGAN-30 07C1 45462U 20021C   26144.99900628  .00002516  00000+0  18736-3 0  99972 45462  34.9966 349.8603 0001666 232.9890 127.0666 15.02592825336925

JSON: /api/v1/satellites/45462 · /tle

For live sub-satellite position, see the globe view (requires WebGL).

§ Visibility from observer

Set your observer location to see the next 7 days of passes ≥ 10°. The values pass through the URL so the page stays shareable.

No JS? Fill the form by hand. The geolocation button needs JavaScript.